Skip Page Navigation
NASA JPL Caltech
NASA Logo - Jet Propulsion Laboratory + View the NASA Portal
+ Center for Near-Earth Object Studies
JPL Home Earth Solar System Stars & Galaxies Technology
JPL Solar System Dynamics
BODIES ORBITS EPHEMERIDES TOOLS PHYSICAL DATA DISCOVERY FAQ SITE MAP
JPL Small-Body Database Browser
Search: [ help ]  
136846 (1997 YV14)
Classification: Main-belt Asteroid          SPK-ID: 2136846
Ephemeris | Orbit Diagram | Orbital Elements | Mission Design | Physical Parameters | Discovery Circumstances ]

[ show orbit diagram ]
Orbital Elements at Epoch 2459396.5 (2021-Jul-01.0) TDB
Reference: JPL 20 (heliocentric ecliptic J2000)
 Element Value Uncertainty (1-sigma)   Units 
e .09482214619691627 3.9997e-08  
a 2.196504118355053 7.6082e-09 au
q 1.988226883722261 8.955e-08 au
i 2.299943717485021 3.9764e-06 deg
node 301.2808103003331 0.00010338 deg
peri 268.30784727 0.00010554 deg
M 349.147255398887 2.1142e-05 deg
tp 2459432.345409137273
(2021-Aug-05.84540914)
6.9863e-05 TDB
period 1189.039986078236
3.26
6.1779e-06
1.691e-08
d
yr
n .3027652595497431 1.5731e-09 deg/d
Q 2.404781352987845 8.3297e-09 au
  Orbit Determination Parameters
   # obs. used (total)      646  
   data-arc span      8532 days (23.36 yr)  
   first obs. used      1997-12-28  
   last obs. used      2021-05-08  
   planetary ephem.      DE441  
   SB-pert. ephem.      SB441-N16  
   condition code      0  
   norm. resid. RMS      .58599  
   source      ORB  
   producer      Otto Matic  
   solution date      2021-Jul-09 01:19:20  

Additional Information
 Earth MOID = .984976 au 
 Jupiter MOID = 2.56172 au 
 T_jup = 3.661 
[ show covariance matrix ]

Ephemeris | Orbit Diagram | Orbital Elements | Mission Design | Physical Parameters | Discovery Circumstances ]

Physical Parameter Table
Parameter Symbol Value Units Sigma Reference Notes
absolute magnitude H 16.70   n/a MPCxxxxx  

136846 (1997 YV14)          Discovered 1997-Dec-28 by Spacewatch at Kitt Peak
Reference: 20061205/Numbers.arcLast Updated: 2006-12-13

Alternate Designations
 1997 YV14 = 2003 UO257 
Ephemeris | Orbit Diagram | Orbital Elements | Mission Design | Physical Parameters | Discovery Circumstances ]
ABOUT SSD CREDITS/AWARDS PRIVACY/COPYRIGHT GLOSSARY LINKS
FirstGov 2021-Jul-26 01:13 UT
(server date/time)  
NASA Home Page
Site Manager:   Ryan S. Park
Webmaster  Alan B. Chamberlin